Time,TemperatureF,DewpointF,PressureIn,WindDirection,WindDirectionDegrees,WindSpeedMPH,WindSpeedGustMPH,Humidity,HourlyPrecipIn,Conditions,Clouds,dailyrainin,SoftwareType,DateUTC
2013-06-21 00:00:00,64.3,58.3,29.94,NNW,337,1.0,21.0,81,0.00,,,0.01,Wunderground v.1.15,2013-06-21 06:00:00,
2013-06-21 00:06:00,64.0,58.4,29.94,NW,317,2.0,21.0,82,0.00,,,0.01,Wunderground v.1.15,2013-06-21 06:06:00,
2013-06-21 00:12:00,64.1,58.5,29.95,NW,308,2.0,21.0,82,0.00,,,0.01,Wunderground v.1.15,2013-06-21 06:12:00,
2013-06-21 00:18:00,64.1,58.5,29.95,NW,308,1.0,21.0,82,0.00,,,0.01,Wunderground v.1.15,2013-06-21 06:18:00,
2013-06-21 00:24:00,64.1,58.5,29.95,NW,308,0.0,21.0,82,0.00,,,0.01,Wunderground v.1.15,2013-06-21 06:24:00,
2013-06-21 00:30:00,64.3,58.7,29.95,NW,308,0.0,21.0,82,0.00,,,0.01,Wunderground v.1.15,2013-06-21 06:30:00,
2013-06-21 00:36:00,64.6,58.6,29.95,NW,308,0.0,21.0,81,0.00,,,0.01,Wunderground v.1.15,2013-06-21 06:36:00,
2013-06-21 00:42:00,64.9,58.6,29.95,NW,310,1.0,21.0,80,0.00,,,0.00,Wunderground v.1.15,2013-06-21 06:42:00,
2013-06-21 00:48:00,65.1,58.8,29.95,NW,314,1.0,21.0,80,0.00,,,0.00,Wunderground v.1.15,2013-06-21 06:48:00,
2013-06-21 00:54:00,65.4,59.1,29.95,NW,316,2.0,21.0,80,0.00,,,0.00,Wunderground v.1.15,2013-06-21 06:54:00,
2013-06-21 01:00:00,65.6,59.3,29.95,NW,322,2.0,21.0,80,0.00,,,0.00,Wunderground v.1.15,2013-06-21 07:00:00,
2013-06-21 01:06:00,65.7,59.0,29.94,NW,323,3.0,21.0,79,0.00,,,0.00,Wunderground v.1.15,2013-06-21 07:06:00,
2013-06-21 01:12:00,65.6,59.3,29.93,NW,318,4.0,21.0,80,0.00,,,0.00,Wunderground v.1.15,2013-06-21 07:12:00,
2013-06-21 01:18:00,65.4,59.1,29.94,NW,316,4.0,21.0,80,0.00,,,0.00,Wunderground v.1.15,2013-06-21 07:18:00,
2013-06-21 01:24:00,65.2,59.2,29.93,NNW,344,4.0,21.0,81,0.00,,,0.00,Wunderground v.1.15,2013-06-21 07:24:00,
2013-06-21 01:30:00,65.2,59.2,29.92,NW,322,4.0,4.0,81,0.00,,,0.00,Wunderground v.1.15,2013-06-21 07:30:00,
2013-06-21 01:36:00,65.2,59.2,29.93,NW,320,3.0,21.0,81,0.00,,,0.00,Wunderground v.1.15,2013-06-21 07:36:00,
2013-06-21 01:42:00,65.3,59.3,29.93,NW,318,2.0,3.0,81,0.00,,,0.00,Wunderground v.1.15,2013-06-21 07:42:00,
2013-06-21 01:48:00,65.5,59.5,29.93,NW,322,3.0,21.0,81,0.00,,,0.00,Wunderground v.1.15,2013-06-21 07:48:00,
2013-06-21 01:54:00,65.5,59.5,29.93,NW,326,3.0,21.0,81,0.00,,,0.00,Wunderground v.1.15,2013-06-21 07:54:00,
2013-06-21 02:00:00,65.3,59.3,29.92,NW,316,3.0,21.0,81,0.00,,,0.00,Wunderground v.1.15,2013-06-21 08:00:00,
2013-06-21 02:06:00,65.1,59.1,29.92,NW,317,3.0,21.0,81,0.00,,,0.00,Wunderground v.1.15,2013-06-21 08:06:00,
2013-06-21 02:12:00,64.9,59.3,29.92,WNW,299,3.0,21.0,82,0.00,,,0.00,Wunderground v.1.15,2013-06-21 08:12:00,
2013-06-21 02:18:00,64.7,59.1,29.93,WNW,294,3.0,21.0,82,0.00,,,0.00,Wunderground v.1.15,2013-06-21 08:18:00,
2013-06-21 02:24:00,64.7,59.1,29.93,NW,308,3.0,21.0,82,0.00,,,0.00,Wunderground v.1.15,2013-06-21 08:24:00,
2013-06-21 02:30:00,64.6,59.0,29.93,NW,305,3.0,3.0,82,0.00,,,0.00,Wunderground v.1.15,2013-06-21 08:30:00,
2013-06-21 02:36:00,64.4,59.1,29.93,NW,309,3.0,21.0,83,0.00,,,0.00,Wunderground v.1.15,2013-06-21 08:36:00,
2013-06-21 02:42:00,64.2,58.9,29.93,NW,307,2.0,21.0,83,0.00,,,0.00,Wunderground v.1.15,2013-06-21 08:42:00,
2013-06-21 02:48:00,64.3,59.0,29.93,NW,307,3.0,21.0,83,0.00,,,0.00,Wunderground v.1.15,2013-06-21 08:48:00,
2013-06-21 02:54:00,64.5,59.2,29.93,NW,315,3.0,21.0,83,0.00,,,0.00,Wunderground v.1.15,2013-06-21 08:54:00,
2013-06-21 03:00:00,64.5,59.2,29.94,NNW,331,3.0,21.0,83,0.00,,,0.00,Wunderground v.1.15,2013-06-21 09:00:00,
2013-06-21 03:06:00,64.9,59.6,29.94,NW,314,4.0,21.0,83,0.00,,,0.00,Wunderground v.1.15,2013-06-21 09:06:00,
2013-06-21 03:12:00,65.1,59.8,29.94,NNW,329,5.0,21.0,83,0.00,,,0.00,Wunderground v.1.15,2013-06-21 09:12:00,
2013-06-21 03:18:00,65.1,60.1,29.94,NW,318,5.0,21.0,84,0.00,,,0.00,Wunderground v.1.15,2013-06-21 09:18:00,
2013-06-21 03:24:00,65.2,60.2,29.94,NNW,328,5.0,21.0,84,0.00,,,0.00,Wunderground v.1.15,2013-06-21 09:24:00,
2013-06-21 03:30:00,65.2,60.2,29.94,NNW,333,5.0,5.0,84,0.00,,,0.00,Wunderground v.1.15,2013-06-21 09:30:00,
2013-06-21 03:36:00,65.2,60.6,29.94,NNW,335,6.0,21.0,85,0.00,,,0.00,Wunderground v.1.15,2013-06-21 09:36:00,
2013-06-21 03:42:00,65.4,60.8,29.94,NNW,328,8.0,21.0,85,0.00,,,0.00,Wunderground v.1.15,2013-06-21 09:42:00,
2013-06-21 03:48:00,65.7,61.4,29.94,NW,321,9.0,21.0,86,0.00,,,0.00,Wunderground v.1.15,2013-06-21 09:48:00,
2013-06-21 03:54:00,65.8,61.5,29.94,NNW,327,9.0,21.0,86,0.00,,,0.00,Wunderground v.1.15,2013-06-21 09:54:00,
2013-06-21 04:00:00,65.8,61.5,29.94,NNW,333,9.0,9.0,86,0.00,,,0.00,Wunderground v.1.15,2013-06-21 10:00:00,
2013-06-21 04:06:00,65.8,61.8,29.95,NNW,343,8.0,21.0,87,0.00,,,0.00,Wunderground v.1.15,2013-06-21 10:06:00,
2013-06-21 04:12:00,65.7,61.7,29.94,NNW,339,8.0,21.0,87,0.00,,,0.00,Wunderground v.1.15,2013-06-21 10:12:00,
2013-06-21 04:18:00,65.6,61.6,29.94,North,350,9.0,21.0,87,0.00,,,0.00,Wunderground v.1.15,2013-06-21 10:18:00,
2013-06-21 04:24:00,65.5,61.9,29.94,NNW,332,8.0,21.0,88,0.00,,,0.00,Wunderground v.1.15,2013-06-21 10:24:00,
2013-06-21 04:30:00,65.4,61.8,29.94,North,4,8.0,8.0,88,0.00,,,0.00,Wunderground v.1.15,2013-06-21 10:30:00,
2013-06-21 04:36:00,65.2,61.9,29.94,North,354,6.0,21.0,89,0.00,,,0.00,Wunderground v.1.15,2013-06-21 10:36:00,
2013-06-21 04:42:00,65.1,61.8,29.94,NNW,347,6.0,21.0,89,0.00,,,0.00,Wunderground v.1.15,2013-06-21 10:42:00,
2013-06-21 04:48:00,65.0,62.0,29.94,North,354,6.0,21.0,90,0.00,,,0.00,Wunderground v.1.15,2013-06-21 10:48:00,
2013-06-21 04:54:00,65.0,62.0,29.93,North,359,4.0,21.0,90,0.00,,,0.00,Wunderground v.1.15,2013-06-21 10:54:00,
2013-06-21 05:00:00,65.0,62.0,29.94,North,350,4.0,21.0,90,0.00,,,0.00,Wunderground v.1.15,2013-06-21 11:00:00,
2013-06-21 05:06:00,65.1,62.4,29.94,North,10,4.0,21.0,91,0.00,,,0.00,Wunderground v.1.15,2013-06-21 11:06:00,
2013-06-21 05:12:00,65.1,62.4,29.94,North,4,4.0,21.0,91,0.00,,,0.00,Wunderground v.1.15,2013-06-21 11:12:00,
2013-06-21 05:18:00,65.2,62.2,29.94,North,4,4.0,21.0,90,0.00,,,0.00,Wunderground v.1.15,2013-06-21 11:18:00,
2013-06-21 05:24:00,65.3,62.3,29.94,NNW,347,5.0,21.0,90,0.00,,,0.00,Wunderground v.1.15,2013-06-21 11:24:00,
2013-06-21 05:30:00,65.3,62.3,29.94,NNW,347,5.0,21.0,90,0.00,,,0.00,Wunderground v.1.15,2013-06-21 11:30:00,
2013-06-21 05:36:00,65.3,62.3,29.94,NNE,20,6.0,21.0,90,0.00,,,0.00,Wunderground v.1.15,2013-06-21 11:36:00,
2013-06-21 05:42:00,65.2,62.2,29.92,NE,40,7.0,21.0,90,0.00,,,0.00,Wunderground v.1.15,2013-06-21 11:42:00,
2013-06-21 05:48:00,65.2,62.2,29.92,NNE,16,8.0,21.0,90,0.00,,,0.00,Wunderground v.1.15,2013-06-21 11:48:00,
2013-06-21 05:54:00,65.3,62.3,29.94,NNE,28,7.0,21.0,90,0.00,,,0.00,Wunderground v.1.15,2013-06-21 11:54:00,
2013-06-21 06:00:00,65.3,62.3,29.94,NNE,29,5.0,21.0,90,0.00,,,0.00,Wunderground v.1.15,2013-06-21 12:00:00,
2013-06-21 06:06:00,65.4,62.4,29.95,North,8,5.0,21.0,90,0.00,,,0.00,Wunderground v.1.15,2013-06-21 12:06:00,
2013-06-21 06:12:00,65.6,62.6,29.96,NNW,345,5.0,8.0,90,0.00,,,0.00,Wunderground v.1.15,2013-06-21 12:12:00,
2013-06-21 06:18:00,65.7,62.7,29.98,NNW,331,5.0,21.0,90,0.00,,,0.00,Wunderground v.1.15,2013-06-21 12:18:00,
2013-06-21 06:24:00,65.7,62.4,29.97,NNE,12,5.0,21.0,89,0.00,,,0.00,Wunderground v.1.15,2013-06-21 12:24:00,
2013-06-21 06:30:00,65.7,62.4,29.94,NE,45,5.0,21.0,89,0.00,,,0.00,Wunderground v.1.15,2013-06-21 12:30:00,
2013-06-21 06:36:00,65.7,62.4,29.93,NE,42,7.0,21.0,89,0.00,,,0.00,Wunderground v.1.15,2013-06-21 12:36:00,
2013-06-21 06:42:00,65.6,62.6,29.93,NE,47,7.0,21.0,90,0.00,,,0.00,Wunderground v.1.15,2013-06-21 12:42:00,
2013-06-21 06:48:00,65.5,62.5,29.92,ENE,63,7.0,21.0,90,0.00,,,0.00,Wunderground v.1.15,2013-06-21 12:48:00,
2013-06-21 06:54:00,65.2,62.5,29.89,ENE,73,9.0,21.0,91,0.00,,,0.00,Wunderground v.1.15,2013-06-21 12:54:00,
2013-06-21 07:00:00,64.9,62.5,29.87,East,95,14.0,14.0,92,0.00,,,0.01,Wunderground v.1.15,2013-06-21 13:00:00,
2013-06-21 07:06:00,64.8,62.4,29.90,East,93,12.0,21.0,92,0.00,,,0.01,Wunderground v.1.15,2013-06-21 13:06:00,
2013-06-21 07:12:00,64.9,62.5,29.91,ENE,70,9.0,21.0,92,0.00,,,0.01,Wunderground v.1.15,2013-06-21 13:12:00,
2013-06-21 07:18:00,64.9,62.5,29.90,ENE,57,7.0,21.0,92,0.00,,,0.01,Wunderground v.1.15,2013-06-21 13:18:00,
2013-06-21 07:24:00,64.9,62.2,29.88,ENE,62,8.0,21.0,91,0.00,,,0.01,Wunderground v.1.15,2013-06-21 13:24:00,
2013-06-21 07:30:00,64.6,62.2,29.86,NE,56,9.0,9.0,92,0.00,,,0.01,Wunderground v.1.15,2013-06-21 13:30:00,
2013-06-21 07:36:00,64.1,61.7,29.87,East,81,9.0,21.0,92,0.00,,,0.01,Wunderground v.1.15,2013-06-21 13:36:00,
2013-06-21 07:42:00,64.0,61.6,29.89,NNW,345,5.0,21.0,92,0.00,,,0.01,Wunderground v.1.15,2013-06-21 13:42:00,
2013-06-21 07:48:00,63.9,61.5,29.91,NW,326,5.0,21.0,92,0.00,,,0.01,Wunderground v.1.15,2013-06-21 13:48:00,
2013-06-21 07:54:00,63.9,61.5,29.95,WNW,301,7.0,21.0,92,0.00,,,0.01,Wunderground v.1.15,2013-06-21 13:54:00,
2013-06-21 08:00:00,63.9,61.5,29.97,NW,310,7.0,7.0,92,0.00,,,0.01,Wunderground v.1.15,2013-06-21 14:00:00,
2013-06-21 08:06:00,63.9,61.5,29.98,NNW,335,6.0,21.0,92,0.00,,,0.01,Wunderground v.1.15,2013-06-21 14:06:00,
2013-06-21 08:12:00,63.9,61.5,29.96,NNW,341,7.0,21.0,92,0.00,,,0.01,Wunderground v.1.15,2013-06-21 14:12:00,
2013-06-21 08:18:00,63.9,61.5,29.95,North,4,7.0,21.0,92,0.00,,,0.01,Wunderground v.1.15,2013-06-21 14:18:00,
2013-06-21 08:24:00,63.9,61.5,29.95,NNE,13,4.0,21.0,92,0.00,,,0.01,Wunderground v.1.15,2013-06-21 14:24:00,
2013-06-21 08:30:00,64.0,61.6,29.93,ENE,77,3.0,21.0,92,0.00,,,0.01,Wunderground v.1.15,2013-06-21 14:30:00,
2013-06-21 08:36:00,63.9,61.8,29.89,East,93,6.0,21.0,93,0.00,,,0.02,Wunderground v.1.15,2013-06-21 14:36:00,
2013-06-21 08:42:00,64.1,62.0,29.91,NNE,33,8.0,11.0,93,0.11,,,0.03,Wunderground v.1.15,2013-06-21 14:42:00,
2013-06-21 08:48:00,64.3,62.2,29.91,North,4,7.0,21.0,93,0.13,,,0.04,Wunderground v.1.15,2013-06-21 14:48:00,
2013-06-21 08:54:00,64.5,62.4,29.97,West,263,6.0,21.0,93,0.06,,,0.04,Wunderground v.1.15,2013-06-21 14:54:00,
2013-06-21 09:00:00,64.6,62.5,29.97,WSW,243,5.0,5.0,93,0.79,,,0.07,Wunderground v.1.15,2013-06-21 15:00:00,
2013-06-21 09:06:00,64.6,62.5,29.95,West,274,4.0,21.0,93,0.13,,,0.08,Wunderground v.1.15,2013-06-21 15:06:00,
2013-06-21 09:12:00,64.5,62.4,29.95,WNW,289,4.0,21.0,93,0.10,,,0.09,Wunderground v.1.15,2013-06-21 15:12:00,
2013-06-21 09:18:00,64.4,62.3,29.95,West,269,6.0,21.0,93,0.06,,,0.09,Wunderground v.1.15,2013-06-21 15:18:00,
2013-06-21 09:24:00,64.5,62.7,29.95,West,278,3.0,21.0,94,0.04,,,0.09,Wunderground v.1.15,2013-06-21 15:24:00,
2013-06-21 09:30:00,64.6,62.8,29.95,WNW,299,4.0,21.0,94,0.00,,,0.09,Wunderground v.1.15,2013-06-21 15:30:00,
2013-06-21 09:36:00,64.3,62.2,29.97,West,274,5.0,21.0,93,0.00,,,0.09,Wunderground v.1.15,2013-06-21 15:36:00,
2013-06-21 09:42:00,64.2,62.1,29.95,NNE,13,2.0,21.0,93,0.00,,,0.09,Wunderground v.1.15,2013-06-21 15:42:00,
2013-06-21 09:48:00,64.3,62.5,29.95,North,354,1.0,21.0,94,0.00,,,0.10,Wunderground v.1.15,2013-06-21 15:48:00,
2013-06-21 09:54:00,64.3,62.5,29.95,WNW,290,3.0,21.0,94,0.00,,,0.10,Wunderground v.1.15,2013-06-21 15:54:00,
2013-06-21 10:00:00,64.3,62.5,29.94,NW,307,6.0,21.0,94,0.00,,,0.10,Wunderground v.1.15,2013-06-21 16:00:00,
2013-06-21 10:06:00,64.6,62.8,29.94,NW,316,6.0,21.0,94,0.00,,,0.10,Wunderground v.1.15,2013-06-21 16:06:00,
2013-06-21 10:12:00,64.8,63.0,29.94,WNW,297,5.0,21.0,94,0.00,,,0.10,Wunderground v.1.15,2013-06-21 16:12:00,
2013-06-21 10:18:00,64.9,63.1,29.93,NW,310,4.0,21.0,94,0.00,,,0.10,Wunderground v.1.15,2013-06-21 16:18:00,
2013-06-21 10:24:00,64.9,63.1,29.93,NNW,328,5.0,21.0,94,0.00,,,0.10,Wunderground v.1.15,2013-06-21 16:24:00,
2013-06-21 10:30:00,65.0,62.9,29.93,WNW,297,6.0,21.0,93,0.00,,,0.10,Wunderground v.1.15,2013-06-21 16:30:00,
2013-06-21 10:36:00,65.1,63.0,29.95,WNW,301,5.0,21.0,93,0.00,,,0.10,Wunderground v.1.15,2013-06-21 16:36:00,
2013-06-21 10:42:00,65.1,63.0,29.95,NW,312,5.0,21.0,93,0.00,,,0.10,Wunderground v.1.15,2013-06-21 16:42:00,
2013-06-21 10:48:00,65.2,63.1,29.95,NNW,339,5.0,21.0,93,0.00,,,0.10,Wunderground v.1.15,2013-06-21 16:48:00,
2013-06-21 10:54:00,65.3,63.2,29.95,NNW,337,6.0,21.0,93,0.00,,,0.10,Wunderground v.1.15,2013-06-21 16:54:00,
2013-06-21 11:00:00,65.3,62.9,29.95,NW,312,5.0,21.0,92,0.00,,,0.10,Wunderground v.1.15,2013-06-21 17:00:00,
2013-06-21 11:08:00,65.4,63.0,29.94,NNW,331,5.0,21.0,92,0.00,,,0.10,Wunderground v.1.15,2013-06-21 17:08:00,
2013-06-21 11:16:00,65.6,63.2,29.95,NNW,327,5.0,21.0,92,0.00,,,0.10,Wunderground v.1.15,2013-06-21 17:16:00,
2013-06-21 11:22:00,65.5,63.1,29.94,NW,326,5.0,6.0,92,0.00,,,0.10,Wunderground v.1.15,2013-06-21 17:22:00,
2013-06-21 11:28:00,65.5,63.1,29.94,NW,307,4.0,21.0,92,0.00,,,0.10,Wunderground v.1.15,2013-06-21 17:28:00,
2013-06-21 11:34:00,65.8,63.4,29.94,NNW,330,5.0,21.0,92,0.00,,,0.10,Wunderground v.1.15,2013-06-21 17:34:00,
2013-06-21 11:40:00,65.9,63.5,29.95,NW,312,5.0,21.0,92,0.00,,,0.10,Wunderground v.1.15,2013-06-21 17:40:00,
2013-06-21 11:46:00,65.6,63.2,29.95,NW,317,6.0,21.0,92,0.00,,,0.10,Wunderground v.1.15,2013-06-21 17:46:00,
2013-06-21 11:48:00,65.4,63.0,29.95,NNW,332,6.0,21.0,92,0.00,,,0.10,Wunderground v.1.15,2013-06-21 17:48:00,
2013-06-21 11:50:00,65.3,62.9,29.95,NNW,330,6.0,6.0,92,0.00,,,0.10,Wunderground v.1.15,2013-06-21 17:50:00,
2013-06-21 11:56:00,65.5,63.1,29.96,NNW,345,5.0,21.0,92,0.00,,,0.10,Wunderground v.1.15,2013-06-21 17:56:00,
2013-06-21 12:02:00,65.8,63.4,29.96,North,354,6.0,21.0,92,0.00,,,0.10,Wunderground v.1.15,2013-06-21 18:02:00,
2013-06-21 12:06:00,65.8,63.4,29.96,NW,320,6.0,21.0,92,0.00,,,0.10,Wunderground v.1.15,2013-06-21 18:06:00,
2013-06-21 12:08:00,65.8,63.4,29.96,NW,321,6.0,21.0,92,0.00,,,0.10,Wunderground v.1.15,2013-06-21 18:08:00,
2013-06-21 12:14:00,64.9,62.2,29.96,NNW,334,6.0,21.0,91,0.00,,,0.10,Wunderground v.1.15,2013-06-21 18:14:00,
2013-06-21 12:20:00,64.0,61.6,29.96,NNW,335,5.0,5.0,92,0.00,,,0.10,Wunderground v.1.15,2013-06-21 18:20:00,
2013-06-21 12:24:00,63.5,61.1,29.97,NNW,348,4.0,21.0,92,0.00,,,0.10,Wunderground v.1.15,2013-06-21 18:24:00,
2013-06-21 12:26:00,63.3,60.9,29.97,NNW,337,4.0,21.0,92,0.00,,,0.10,Wunderground v.1.15,2013-06-21 18:26:00,
2013-06-21 12:30:00,63.0,60.6,29.98,NNW,341,5.0,21.0,92,0.00,,,0.10,Wunderground v.1.15,2013-06-21 18:30:00,
2013-06-21 12:34:00,62.7,60.3,29.98,North,354,5.0,21.0,92,0.00,,,0.10,Wunderground v.1.15,2013-06-21 18:34:00,
2013-06-21 12:38:00,62.5,60.1,29.98,NW,322,5.0,21.0,92,0.00,,,0.10,Wunderground v.1.15,2013-06-21 18:38:00,
2013-06-21 12:44:00,63.4,61.6,29.97,WNW,298,6.0,21.0,94,0.00,,,0.11,Wunderground v.1.15,2013-06-21 18:44:00,
2013-06-21 12:46:00,63.6,61.8,29.97,North,4,5.0,21.0,94,0.00,,,0.11,Wunderground v.1.15,2013-06-21 18:46:00,
2013-06-21 12:48:00,63.8,61.7,29.97,NNW,341,5.0,21.0,93,0.00,,,0.11,Wunderground v.1.15,2013-06-21 18:48:00,
2013-06-21 12:52:00,63.8,61.4,29.97,NW,312,6.0,21.0,92,0.00,,,0.11,Wunderground v.1.15,2013-06-21 18:52:00,
2013-06-21 12:54:00,64.0,61.3,29.97,NNW,333,7.0,21.0,91,0.00,,,0.11,Wunderground v.1.15,2013-06-21 18:54:00,
2013-06-21 13:00:00,64.3,61.0,29.98,NNW,328,9.0,21.0,89,0.00,,,0.11,Wunderground v.1.15,2013-06-21 19:00:00,
2013-06-21 13:06:00,64.5,61.5,29.97,North,354,10.0,21.0,90,0.00,,,0.11,Wunderground v.1.15,2013-06-21 19:06:00,
2013-06-21 13:12:00,64.6,61.0,29.97,NW,315,11.0,11.0,88,0.00,,,0.11,Wunderground v.1.15,2013-06-21 19:12:00,
2013-06-21 13:18:00,64.8,61.2,29.97,NNW,341,11.0,21.0,88,0.00,,,0.11,Wunderground v.1.15,2013-06-21 19:18:00,
2013-06-21 13:24:00,64.9,61.3,29.96,NNW,343,11.0,21.0,88,0.00,,,0.11,Wunderground v.1.15,2013-06-21 19:24:00,
2013-06-21 13:30:00,64.7,60.7,29.97,NNW,338,12.0,12.0,87,0.00,,,0.11,Wunderground v.1.15,2013-06-21 19:30:00,
2013-06-21 13:36:00,64.1,60.2,29.96,NNW,339,12.0,21.0,87,0.00,,,0.11,Wunderground v.1.15,2013-06-21 19:36:00,
2013-06-21 13:42:00,63.6,60.0,29.97,NNW,330,11.0,21.0,88,0.00,,,0.11,Wunderground v.1.15,2013-06-21 19:42:00,
2013-06-21 13:48:00,64.6,61.0,29.97,NNW,343,9.0,21.0,88,0.00,,,0.11,Wunderground v.1.15,2013-06-21 19:48:00,
2013-06-21 13:52:00,64.8,60.5,29.97,NW,310,9.0,21.0,86,0.00,,,0.11,Wunderground v.1.15,2013-06-21 19:52:00,
2013-06-21 13:58:00,64.6,60.3,29.97,NNW,330,10.0,21.0,86,0.00,,,0.11,Wunderground v.1.15,2013-06-21 19:58:00,
2013-06-21 14:04:00,64.6,60.3,29.97,WNW,297,11.0,21.0,86,0.00,,,0.11,Wunderground v.1.15,2013-06-21 20:04:00,
2013-06-21 14:10:00,64.7,60.4,29.97,NW,324,12.0,12.0,86,0.00,,,0.11,Wunderground v.1.15,2013-06-21 20:10:00,
2013-06-21 14:16:00,64.9,60.3,29.97,WNW,301,10.0,21.0,85,0.00,,,0.11,Wunderground v.1.15,2013-06-21 20:16:00,
2013-06-21 14:18:00,65.0,60.7,29.97,NNW,332,10.0,21.0,86,0.00,,,0.11,Wunderground v.1.15,2013-06-21 20:18:00,
2013-06-21 14:24:00,65.4,61.1,29.97,NNW,332,10.0,21.0,86,0.00,,,0.11,Wunderground v.1.15,2013-06-21 20:24:00,
2013-06-21 14:30:00,66.5,60.5,29.97,North,4,10.0,10.0,81,0.00,,,0.11,Wunderground v.1.15,2013-06-21 20:30:00,
2013-06-21 14:36:00,66.8,60.1,29.97,NNW,336,10.0,21.0,79,0.00,,,0.11,Wunderground v.1.15,2013-06-21 20:36:00,
2013-06-21 14:42:00,66.7,59.6,29.97,North,8,10.0,21.0,78,0.00,,,0.11,Wunderground v.1.15,2013-06-21 20:42:00,
2013-06-21 14:48:00,67.2,60.1,29.98,NNW,343,9.0,21.0,78,0.00,,,0.11,Wunderground v.1.15,2013-06-21 20:48:00,
2013-06-21 14:54:00,68.1,61.0,29.99,North,354,9.0,21.0,78,0.00,,,0.11,Wunderground v.1.15,2013-06-21 20:54:00,
2013-06-21 15:00:00,68.3,60.4,29.99,NNW,337,10.0,10.0,76,0.00,,,0.11,Wunderground v.1.15,2013-06-21 21:00:00,
2013-06-21 15:06:00,69.3,62.1,29.99,NNW,347,10.0,21.0,78,0.00,,,0.11,Wunderground v.1.15,2013-06-21 21:06:00,
2013-06-21 15:12:00,70.2,61.1,29.99,North,349,11.0,21.0,73,0.00,,,0.11,Wunderground v.1.15,2013-06-21 21:12:00,
2013-06-21 15:18:00,69.5,60.5,29.99,NNE,19,10.0,21.0,73,0.00,,,0.11,Wunderground v.1.15,2013-06-21 21:18:00,
2013-06-21 15:24:00,70.4,62.1,29.98,North,359,10.0,21.0,75,0.00,,,0.11,Wunderground v.1.15,2013-06-21 21:24:00,
2013-06-21 15:30:00,70.3,61.2,29.99,North,4,10.0,10.0,73,0.00,,,0.11,Wunderground v.1.15,2013-06-21 21:30:00,
2013-06-21 15:36:00,71.0,61.1,29.99,NNW,336,10.0,21.0,71,0.00,,,0.11,Wunderground v.1.15,2013-06-21 21:36:00,
2013-06-21 15:42:00,71.4,61.5,29.98,NNW,341,9.0,21.0,71,0.00,,,0.11,Wunderground v.1.15,2013-06-21 21:42:00,
2013-06-21 15:48:00,71.4,60.7,29.99,North,354,10.0,21.0,69,0.00,,,0.11,Wunderground v.1.15,2013-06-21 21:48:00,
2013-06-21 15:54:00,70.6,60.7,29.99,NNW,338,10.0,17.0,71,0.00,,,0.11,Wunderground v.1.15,2013-06-21 21:54:00,
2013-06-21 16:00:00,69.7,59.9,30.00,NNW,336,11.0,11.0,71,0.00,,,0.11,Wunderground v.1.15,2013-06-21 22:00:00,
2013-06-21 16:06:00,70.2,60.4,29.99,NNW,341,11.0,21.0,71,0.00,,,0.11,Wunderground v.1.15,2013-06-21 22:06:00,
2013-06-21 16:12:00,69.6,60.2,30.00,NW,324,10.0,21.0,72,0.00,,,0.11,Wunderground v.1.15,2013-06-21 22:12:00,
2013-06-21 16:18:00,69.0,60.4,29.99,NNW,346,9.0,21.0,74,0.00,,,0.11,Wunderground v.1.15,2013-06-21 22:18:00,
2013-06-21 16:24:00,68.7,60.5,29.98,North,10,7.0,21.0,75,0.00,,,0.11,Wunderground v.1.15,2013-06-21 22:24:00,
2013-06-21 16:30:00,68.6,60.7,29.97,North,8,8.0,8.0,76,0.00,,,0.11,Wunderground v.1.15,2013-06-21 22:30:00,
2013-06-21 16:36:00,68.6,61.1,29.97,ENE,59,7.0,21.0,77,0.00,,,0.11,Wunderground v.1.15,2013-06-21 22:36:00,
2013-06-21 16:42:00,68.1,61.0,29.96,NE,37,6.0,21.0,78,0.00,,,0.12,Wunderground v.1.15,2013-06-21 22:42:00,
2013-06-21 16:48:00,67.9,61.1,29.99,NNE,29,7.0,21.0,79,0.00,,,0.12,Wunderground v.1.15,2013-06-21 22:48:00,
2013-06-21 16:54:00,67.9,61.5,30.01,NE,39,5.0,21.0,80,0.05,,,0.13,Wunderground v.1.15,2013-06-21 22:54:00,
2013-06-21 17:00:00,67.8,61.4,30.00,NE,37,2.0,21.0,80,0.05,,,0.13,Wunderground v.1.15,2013-06-21 23:00:00,
2013-06-21 17:06:00,67.8,62.1,29.99,ENE,65,3.0,21.0,82,0.04,,,0.13,Wunderground v.1.15,2013-06-21 23:06:00,
2013-06-21 17:12:00,67.7,62.0,29.99,NNE,31,4.0,6.0,82,0.00,,,0.13,Wunderground v.1.15,2013-06-21 23:12:00,
2013-06-21 17:18:00,67.8,61.8,30.01,North,350,3.0,21.0,81,0.00,,,0.13,Wunderground v.1.15,2013-06-21 23:18:00,
2013-06-21 17:24:00,67.8,61.8,30.00,NNE,25,2.0,21.0,81,0.00,,,0.13,Wunderground v.1.15,2013-06-21 23:24:00,
2013-06-21 17:30:00,66.5,59.4,29.98,North,354,3.0,21.0,78,0.00,,,0.13,Wunderground v.1.15,2013-06-21 23:30:00,
2013-06-21 17:36:00,65.4,59.4,30.00,West,276,4.0,21.0,81,0.00,,,0.13,Wunderground v.1.15,2013-06-21 23:36:00,
2013-06-21 17:42:00,64.8,59.2,30.00,West,278,4.0,21.0,82,0.00,,,0.13,Wunderground v.1.15,2013-06-21 23:42:00,
2013-06-21 17:48:00,64.6,59.0,30.00,WNW,290,5.0,21.0,82,0.00,,,0.13,Wunderground v.1.15,2013-06-21 23:48:00,
2013-06-21 17:54:00,64.4,58.8,30.01,WNW,286,4.0,21.0,82,0.00,,,0.13,Wunderground v.1.15,2013-06-21 23:54:00,
2013-06-21 18:00:00,64.3,58.7,30.01,NW,323,5.0,5.0,82,0.00,,,0.13,Wunderground v.1.15,2013-06-22 00:00:00,
2013-06-21 18:06:00,64.2,58.9,29.97,SE,126,4.0,21.0,83,0.00,,,0.13,Wunderground v.1.15,2013-06-22 00:06:00,
2013-06-21 18:12:00,64.0,59.1,30.02,West,270,5.0,21.0,84,0.00,,,0.13,Wunderground v.1.15,2013-06-22 00:12:00,
2013-06-21 18:18:00,63.9,59.0,29.99,NW,322,6.0,21.0,84,0.00,,,0.13,Wunderground v.1.15,2013-06-22 00:18:00,
2013-06-21 18:24:00,63.9,59.0,30.01,West,272,3.0,21.0,84,0.00,,,0.13,Wunderground v.1.15,2013-06-22 00:24:00,
2013-06-21 18:30:00,63.9,59.0,29.99,West,269,3.0,3.0,84,0.00,,,0.13,Wunderground v.1.15,2013-06-22 00:30:00,
2013-06-21 18:36:00,63.7,58.8,30.01,West,273,3.0,21.0,84,0.00,,,0.13,Wunderground v.1.15,2013-06-22 00:36:00,
2013-06-21 18:42:00,63.8,59.2,30.01,NE,52,3.0,21.0,85,0.00,,,0.13,Wunderground v.1.15,2013-06-22 00:42:00,
2013-06-21 18:48:00,63.8,59.2,30.02,WNW,301,1.0,21.0,85,0.00,,,0.13,Wunderground v.1.15,2013-06-22 00:48:00,
2013-06-21 18:54:00,63.8,58.9,30.00,NNE,27,2.0,21.0,84,0.00,,,0.13,Wunderground v.1.15,2013-06-22 00:54:00,
2013-06-21 19:00:00,63.9,58.6,30.01,WNW,295,2.0,21.0,83,0.00,,,0.13,Wunderground v.1.15,2013-06-22 01:00:00,
2013-06-21 19:06:00,64.2,58.9,30.01,WNW,282,3.0,21.0,83,0.00,,,0.13,Wunderground v.1.15,2013-06-22 01:06:00,
2013-06-21 19:12:00,64.2,58.9,30.01,WSW,245,2.0,21.0,83,0.00,,,0.13,Wunderground v.1.15,2013-06-22 01:12:00,
2013-06-21 19:18:00,64.2,59.3,30.00,WSW,243,2.0,21.0,84,0.00,,,0.13,Wunderground v.1.15,2013-06-22 01:18:00,
2013-06-21 19:24:00,64.1,59.2,29.98,SE,143,1.0,21.0,84,0.00,,,0.13,Wunderground v.1.15,2013-06-22 01:24:00,
2013-06-21 19:30:00,64.0,59.1,29.98,East,89,3.0,3.0,84,0.00,,,0.13,Wunderground v.1.15,2013-06-22 01:30:00,
2013-06-21 19:36:00,63.9,59.3,30.00,East,88,1.0,21.0,85,0.00,,,0.13,Wunderground v.1.15,2013-06-22 01:36:00,
2013-06-21 19:42:00,63.8,59.2,30.03,WSW,257,1.0,21.0,85,0.00,,,0.13,Wunderground v.1.15,2013-06-22 01:42:00,
2013-06-21 19:48:00,63.6,59.0,30.03,West,266,2.0,21.0,85,0.00,,,0.13,Wunderground v.1.15,2013-06-22 01:48:00,
2013-06-21 19:54:00,63.4,59.1,30.04,WNW,293,4.0,21.0,86,0.00,,,0.13,Wunderground v.1.15,2013-06-22 01:54:00,
2013-06-21 20:00:00,63.6,59.0,30.04,NNW,328,4.0,21.0,85,0.00,,,0.13,Wunderground v.1.15,2013-06-22 02:00:00,
2013-06-21 20:06:00,63.7,58.8,30.05,NW,311,4.0,21.0,84,0.00,,,0.13,Wunderground v.1.15,2013-06-22 02:06:00,
2013-06-21 20:12:00,63.7,58.8,30.04,WNW,296,2.0,21.0,84,0.00,,,0.13,Wunderground v.1.15,2013-06-22 02:12:00,
2013-06-21 20:18:00,63.6,59.0,30.04,WNW,299,1.0,21.0,85,0.00,,,0.13,Wunderground v.1.15,2013-06-22 02:18:00,
2013-06-21 20:24:00,63.5,58.9,30.04,WNW,299,0.0,21.0,85,0.00,,,0.13,Wunderground v.1.15,2013-06-22 02:24:00,
2013-06-21 20:30:00,63.3,59.0,30.06,WNW,299,0.0,21.0,86,0.00,,,0.13,Wunderground v.1.15,2013-06-22 02:30:00,
2013-06-21 20:36:00,63.0,58.7,30.07,West,276,2.0,21.0,86,0.00,,,0.13,Wunderground v.1.15,2013-06-22 02:36:00,
2013-06-21 20:42:00,63.0,59.1,30.06,West,272,3.0,21.0,87,0.00,,,0.13,Wunderground v.1.15,2013-06-22 02:42:00,
2013-06-21 20:48:00,63.2,59.3,30.06,West,272,1.0,21.0,87,0.00,,,0.13,Wunderground v.1.15,2013-06-22 02:48:00,
2013-06-21 20:54:00,63.3,59.4,30.05,West,268,1.0,21.0,87,0.00,,,0.13,Wunderground v.1.15,2013-06-22 02:54:00,
2013-06-21 21:00:00,63.4,59.1,30.05,West,268,0.0,21.0,86,0.00,,,0.13,Wunderground v.1.15,2013-06-22 03:00:00,
2013-06-21 21:06:00,63.6,59.3,30.05,West,268,0.0,21.0,86,0.00,,,0.13,Wunderground v.1.15,2013-06-22 03:06:00,
2013-06-21 21:12:00,63.6,59.3,30.06,WNW,282,1.0,21.0,86,0.00,,,0.13,Wunderground v.1.15,2013-06-22 03:12:00,
2013-06-21 21:18:00,63.6,59.3,30.05,WNW,282,1.0,21.0,86,0.00,,,0.13,Wunderground v.1.15,2013-06-22 03:18:00,
2013-06-21 21:24:00,63.5,59.2,30.05,WNW,282,0.0,21.0,86,0.00,,,0.13,Wunderground v.1.15,2013-06-22 03:24:00,
2013-06-21 21:30:00,63.5,59.2,30.05,WNW,282,1.0,21.0,86,0.00,,,0.13,Wunderground v.1.15,2013-06-22 03:30:00,
2013-06-21 21:36:00,63.5,59.2,30.05,WNW,282,1.0,21.0,86,0.00,,,0.13,Wunderground v.1.15,2013-06-22 03:36:00,
2013-06-21 21:42:00,63.3,59.4,30.05,WNW,282,2.0,21.0,87,0.00,,,0.13,Wunderground v.1.15,2013-06-22 03:42:00,
2013-06-21 21:48:00,63.2,59.3,30.05,WNW,282,2.0,21.0,87,0.00,,,0.13,Wunderground v.1.15,2013-06-22 03:48:00,
2013-06-21 21:54:00,63.0,59.1,30.06,West,277,2.0,21.0,87,0.00,,,0.13,Wunderground v.1.15,2013-06-22 03:54:00,
2013-06-21 22:00:00,62.7,59.1,30.07,West,272,3.0,21.0,88,0.00,,,0.13,Wunderground v.1.15,2013-06-22 04:00:00,
2013-06-21 22:02:00,62.6,59.0,30.07,West,268,3.0,21.0,88,0.00,,,0.13,Wunderground v.1.15,2013-06-22 04:02:00,
2013-06-21 22:06:00,62.5,58.9,30.08,WSW,247,4.0,21.0,88,0.00,,,0.13,Wunderground v.1.15,2013-06-22 04:06:00,
2013-06-21 22:08:00,62.5,59.2,30.08,WSW,247,4.0,21.0,89,0.00,,,0.13,Wunderground v.1.15,2013-06-22 04:08:00,
2013-06-21 22:12:00,62.4,59.1,30.08,West,267,4.0,21.0,89,0.00,,,0.13,Wunderground v.1.15,2013-06-22 04:12:00,
2013-06-21 22:18:00,62.5,59.2,30.08,West,278,4.0,21.0,89,0.00,,,0.13,Wunderground v.1.15,2013-06-22 04:18:00,
2013-06-21 22:24:00,62.7,59.4,30.07,West,280,5.0,21.0,89,0.00,,,0.13,Wunderground v.1.15,2013-06-22 04:24:00,
2013-06-21 22:30:00,62.7,59.4,30.06,West,276,5.0,5.0,89,0.00,,,0.13,Wunderground v.1.15,2013-06-22 04:30:00,
2013-06-21 22:36:00,62.5,59.2,30.06,West,275,4.0,21.0,89,0.00,,,0.13,Wunderground v.1.15,2013-06-22 04:36:00,
2013-06-21 22:42:00,62.4,59.4,30.05,West,275,2.0,21.0,90,0.00,,,0.13,Wunderground v.1.15,2013-06-22 04:42:00,
2013-06-21 22:48:00,62.3,59.3,30.03,West,275,0.0,21.0,90,0.00,,,0.13,Wunderground v.1.15,2013-06-22 04:48:00,
2013-06-21 22:54:00,62.3,59.0,30.01,West,275,1.0,21.0,89,0.00,,,0.13,Wunderground v.1.15,2013-06-22 04:54:00,
2013-06-21 23:00:00,62.3,59.0,29.98,East,98,2.0,21.0,89,0.00,,,0.13,Wunderground v.1.15,2013-06-22 05:00:00,
2013-06-21 23:06:00,62.5,59.2,30.00,East,100,2.0,21.0,89,0.00,,,0.13,Wunderground v.1.15,2013-06-22 05:06:00,
2013-06-21 23:12:00,62.5,59.2,29.97,East,101,0.0,2.0,89,0.00,,,0.13,Wunderground v.1.15,2013-06-22 05:12:00,
2013-06-21 23:18:00,62.4,59.1,29.98,East,100,1.0,21.0,89,0.00,,,0.13,Wunderground v.1.15,2013-06-22 05:18:00,
2013-06-21 23:24:00,62.3,59.0,29.98,East,101,1.0,21.0,89,0.00,,,0.13,Wunderground v.1.15,2013-06-22 05:24:00,
2013-06-21 23:30:00,62.2,58.9,29.98,ESE,116,2.0,2.0,89,0.00,,,0.13,Wunderground v.1.15,2013-06-22 05:30:00,
2013-06-21 23:36:00,62.3,59.0,29.99,ESE,116,2.0,21.0,89,0.00,,,0.13,Wunderground v.1.15,2013-06-22 05:36:00,
2013-06-21 23:42:00,62.3,59.0,29.99,ESE,116,1.0,21.0,89,0.00,,,0.13,Wunderground v.1.15,2013-06-22 05:42:00,
2013-06-21 23:48:00,62.5,58.6,29.98,ESE,116,0.0,21.0,87,0.00,,,0.13,Wunderground v.1.15,2013-06-22 05:48:00,
2013-06-21 23:54:00,62.2,58.6,29.98,ESE,116,0.0,21.0,88,0.00,,,0.13,Wunderground v.1.15,2013-06-22 05:54:00,